Location: A�t �Alizem
(31.2076°N, 8.7872°W)
Time: 07:38:10
(UTC+00:00)

deb Explorer IX - Pass Details

Date: 24 June 2021
Orbit: 541 x 1234 km, 38.9° (Epoch: 29 July)

Event Time Altitude Azimuth Distance (km) Brightness Sun altitude
Rises 03:56:01 0° 295° (WNW) 3,320 ? -17.6°
Reaches altitude 10° 03:58:21 10° 299° (WNW) 2,487 ? -17.3°
Maximum altitude 04:04:20 65° 21° (NNE) 1,074 ? -16.3°
Drops below altitude 10° 04:11:32 10° 102° (ESE) 2,972 ? -15.1°
Sets 04:14:33 0° 105° (ESE) 4,011 ? -14.7°
